{"data":{"norad_id":57521,"epoch":"2026-05-24T11:47:02.025888Z","epoch_age_seconds":121952,"freshness":"FRESH","line1":"1 57521U 23115A   26144.49099567  .00004026  00000+0  15573-3 0  9993","line2":"2 57521  43.0009 293.5502 0001399 265.9264  94.1428 15.27580047155165","mean_motion":15.27580047,"eccentricity":0.0001399,"inclination_deg":43.0009,"raan_deg":293.5502,"arg_perigee_deg":265.9264,"mean_anomaly_deg":94.1428,"bstar":0.00015573,"rev_number":15516,"period_min":94.266745813288,"perigee_km":482.0890753896,"apogee_km":484.0088352199,"semimajor_km":6861.1859553047,"source":"CELESTRAK","updated_at":"2026-05-25T13:38:18.331568Z"}}